This is the latest recevied weather packets stored in our database for station/object EB1TK-13. If no packets are shown the sender has not sent any weather packets the latest 10 day(s).
| Time | Temp. | Humidity | Pressure | Rain* | Wind** | Luminosity | Snow |
|---|---|---|---|---|---|---|---|
| 1777720336 | 17.22° C | 89% | 1015.3 hPa | 0 mm | - | - | - |
| 1777719736 | 17.22° C | 90% | 1015.3 hPa | 0 mm | - | - | - |
| 1777719137 | 17.22° C | 91% | 1015.3 hPa | 0 mm | - | - | - |
| 1777718537 | 17.22° C | 91% | 1015.1 hPa | 0 mm | - | - | - |
| 1777717935 | 17.22° C | 92% | 1015.2 hPa | 0 mm | - | - | - |
| 1777717336 | 17.22° C | 92% | 1015.3 hPa | 0 mm | - | - | - |
| 1777716736 | 17.22° C | 92% | 1015.4 hPa | 0 mm | - | - | - |
| 1777716139 | 16.67° C | 90% | 1015.4 hPa | 0 mm | - | - | - |
| 1777715537 | 17.22° C | 91% | 1015.5 hPa | 0 mm | - | - | - |
| 1777714937 | 16.67° C | 93% | 1015.5 hPa | 0 mm | - | - | - |
| 1777714337 | 16.11° C | 93% | 1015.6 hPa | 0 mm | - | - | - |
| 1777713735 | 16.67° C | 93% | 1015.8 hPa | 0 mm | - | - | - |
| 1777713136 | 16.67° C | 93% | 1015.7 hPa | 0 mm | - | - | - |
| 1777712536 | 16.67° C | - | 1015.5 hPa | 0 mm | - | - | - |
| 1777711941 | 16.67° C | 94% | 1015.5 hPa | 0 mm | - | - | - |
| 1777711336 | 16.67° C | 95% | 1015.5 hPa | 0 mm | - | - | - |
| 1777710737 | 16.11° C | 95% | 1015.4 hPa | 0 mm | - | - | - |
| 1777710135 | 16.11° C | 96% | 1015.2 hPa | 0 mm | - | - | - |
| 1777709535 | 16.11° C | 96% | 1015.2 hPa | 0 mm | - | - | - |
| 1777708936 | 16.11° C | 96% | 1015.4 hPa | 0 mm | - | - | - |
| 1777708336 | 16.11° C | 97% | 1015.6 hPa | 0 mm | - | - | - |
| 1777707736 | 15.56° C | 97% | 1015.4 hPa | 0 mm | - | - | - |
| 1777707137 | 15.56° C | 97% | 1015.5 hPa | 0 mm | - | - | - |
| 1777706537 | 15.56° C | 97% | 1015.3 hPa | 0 mm | - | - | - |
| 1777705935 | 15.56° C | 98% | 1015.2 hPa | 0 mm | - | - | - |
* Rain latest hour (hover to see other rain measurements)
** Current wind speed in m/s (hover to see current wind gust speed)